Wind_Speed
46 46 45 43 41 38 36 34 31 28 26 23 21 19 19 19 18 17 17 16 15 14 15 15 14 12 11 10 10 9 8 6 5 6 6 7 7 8 9 10 11 11 11 11 11 12 14 15 16 16 15 16 17 18 19 19 20 20 20 21 21 21 22 24 28 34 35 34 34 34 34 35 34 32 32 31 28 27 27 26 26 28 31 33 35
48 48 47 45 43 40 37 34 31 28 26 23 21 19 19 19 18 17 17 17 15 15 15 15 13 11 11 11 10 10 9 8 7 8 9 9 10 10 11 12 13 14 14 14 13 12 13 15 16 16 16 17 18 18 19 19 19 20 21 21 22 22 22 23 26 30 34 35 35 35 35 35 35 33 32 32 31 30 28 27 26 28 31 34 36
49 49 48 47 44 41 38 35 31 28 27 24 20 19 20 19 18 18 18 17 16 15 15 14 13 12 12 11 11 11 11 10 10 10 11 12 12 13 14 14 15 16 16 16 15 14 15 16 17 16 17 18 19 19 19 19 19 21 21 21 22 23 23 24 25 28 32 34 35 35 34 34 35 35 34 34 32 30 29 28 27 29 32 35 38
50 50 49 48 46 43 39 35 32 30 29 25 20 19 21 21 19 19 18 17 17 16 15 14 14 14 13 12 12 12 12 12 12 13 13 14 14 15 15 16 17 17 17 17 16 15 16 17 17 17 17 19 19 19 19 19 20 21 21 21 22 23 23 24 26 28 31 34 35 35 35 35 36 36 36 35 31 29 29 28 28 30 34 36 39
51 50 50 49 47 44 41 37 34 32 29 24 20 21 23 22 21 19 18 18 18 17 16 15 15 16 15 14 13 14 14 14 14 15 15 15 16 16 17 17 17 17 17 16 16 15 16 17 17 17 17 19 19 19 19 19 20 21 22 22 22 23 23 24 26 28 30 33 36 36 37 37 37 36 35 34 32 30 29 28 28 31 35 37 39
50 51 50 49 49 46 43 39 33 30 27 22 20 22 24 23 21 20 19 19 19 17 17 16 15 16 16 15 15 15 15 16 16 16 16 17 17 17 17 17 16 15 15 15 15 15 16 17 17 17 18 19 19 19 20 20 21 22 22 22 22 23 24 25 26 28 30 33 36 38 38 38 37 36 34 32 32 33 32 30 30 31 35 38 40
50 50 49 50 50 45 40 35 32 31 29 26 25 24 25 24 22 20 20 20 19 18 18 15 13 15 17 16 15 16 16 16 16 17 17 17 18 18 17 16 15 15 15 15 15 16 16 17 18 18 19 20 20 20 21 22 23 23 24 23 23 23 24 25 26 28 30 32 35 36 37 36 36 35 33 31 31 32 32 33 34 34 35 38 41
49 49 49 49 46 42 39 38 39 38 35 33 32 29 27 25 23 21 21 20 19 19 18 16 14 16 18 18 17 17 17 17 17 17 17 17 17 17 17 16 16 16 16 16 17 18 18 19 19 19 20 20 20 20 21 23 25 26 26 25 25 24 25 26 27 28 29 30 31 32 34 35 35 35 34 32 32 31 30 32 36 37 36 38 41
48 48 48 46 44 45 46 46 46 42 37 36 35 32 29 27 24 23 22 21 18 17 18 18 18 20 20 20 19 18 18 18 17 17 17 16 16 16 16 16 16 17 17 18 18 19 19 19 19 19 19 20 20 21 22 24 26 28 28 27 26 26 26 27 28 29 29 29 29 30 32 34 35 35 35 34 33 33 31 31 35 37 38 40 42
47 47 46 45 47 50 49 48 48 43 40 38 35 34 32 28 26 25 24 23 18 15 19 22 22 22 22 21 20 19 18 19 18 17 16 16 15 16 16 16 16 17 17 18 18 19 19 19 19 19 20 21 21 21 22 24 26 28 28 28 27 27 27 28 29 29 28 28 29 30 32 35 36 36 36 35 34 33 32 33 36 38 39 42 45
45 45 45 46 49 49 47 47 46 40 37 35 35 35 33 29 27 26 26 24 18 16 22 27 25 24 23 23 21 19 19 19 18 17 16 16 15 16 16 17 17 17 18 18 19 19 20 21 21 22 22 22 21 20 21 23 25 27 27 27 27 27 27 28 29 28 28 28 28 29 31 35 37 36 36 36 34 33 33 34 36 38 38 41 46
43 44 45 46 48 47 46 47 45 38 34 33 34 34 32 29 27 28 27 21 16 18 25 28 26 24 23 23 21 19 19 19 19 18 17 15 15 17 18 19 19 20 20 20 20 21 21 21 21 22 24 25 24 23 23 24 25 26 27 27 27 28 28 28 29 28 27 27 28 29 31 34 35 35 35 35 35 35 35 35 36 37 37 39 44
42 44 45 45 46 45 45 47 45 37 32 32 32 31 32 30 28 29 26 19 18 23 27 27 25 24 23 23 21 20 20 20 19 19 16 14 14 17 18 19 20 21 22 22 23 23 22 22 22 23 24 25 26 27 27 26 26 26 27 27 27 28 28 28 28 27 27 27 28 30 31 32 33 34 34 34 35 36 36 35 35 36 38 39 42
41 43 44 44 44 42 43 45 42 34 31 32 32 31 30 28 27 28 26 22 24 29 29 27 26 24 23 23 21 20 20 20 20 19 16 14 15 16 17 16 17 19 21 22 23 23 22 22 22 23 24 25 26 27 27 26 26 26 26 27 28 28 28 28 28 27 26 27 29 31 31 30 31 33 34 34 35 36 36 37 37 37 39 40 43
39 41 42 42 41 41 42 43 38 32 30 33 34 32 30 27 26 27 26 27 30 31 28 27 26 24 23 23 21 21 21 21 20 18 16 16 17 18 17 16 17 18 20 21 22 21 21 22 23 23 23 24 24 23 24 25 26 26 26 26 27 27 27 28 27 27 27 28 30 31 30 30 30 32 33 33 33 34 36 38 39 41 42 43 45
37 38 39 39 39 41 42 41 35 31 31 36 38 35 32 30 29 27 27 29 31 29 27 27 26 24 23 22 21 22 21 20 19 18 18 18 19 19 18 18 18 20 21 21 20 19 20 21 21 21 22 22 22 21 23 24 25 25 25 25 25 26 26 27 27 27 28 29 30 30 29 29 30 30 31 31 32 34 36 38 42 43 44 44 47
35 36 37 38 39 40 41 39 33 30 34 40 41 39 37 35 33 29 28 29 30 30 28 27 25 24 23 23 23 22 21 20 19 19 19 21 21 20 20 19 19 21 22 20 19 19 19 19 19 20 20 21 21 21 22 24 24 25 25 25 26 26 26 27 27 27 28 28 28 28 28 29 29 29 29 29 30 32 35 38 42 43 41 42 46
33 35 36 38 39 39 39 36 30 28 35 42 43 43 42 39 36 33 29 27 28 29 28 26 25 24 24 24 23 23 22 21 20 21 21 21 22 21 20 20 21 22 21 19 18 19 18 18 18 20 21 21 21 21 22 24 25 25 25 25 25 26 26 26 26 27 27 27 27 27 28 28 28 27 27 28 29 30 32 36 39 39 40 42 47
31 33 35 36 38 39 37 33 27 27 34 42 44 43 42 39 35 31 26 24 25 26 25 25 24 23 24 24 24 23 23 22 21 21 22 21 21 20 21 21 22 21 19 18 18 18 17 17 18 20 21 21 21 22 23 24 24 24 23 23 24 24 25 25 26 26 26 26 27 27 27 26 26 27 27 28 28 29 32 35 36 36 39 42 45
27 30 32 34 36 36 33 30 26 25 33 42 42 39 38 37 33 25 19 19 21 22 24 25 24 23 23 23 23 24 24 24 23 23 23 22 21 20 21 21 20 19 18 18 18 17 16 17 19 21 21 21 21 22 22 22 22 21 21 21 22 23 24 25 25 24 25 27 28 27 26 25 25 26 27 29 30 31 33 34 34 34 36 39 44
25 27 29 32 33 32 31 29 25 23 31 39 39 36 35 35 30 22 17 17 18 19 21 22 22 22 22 21 23 24 25 25 25 24 23 22 21 20 20 19 18 17 18 19 19 18 17 18 20 19 20 20 21 21 20 20 20 19 20 21 22 23 24 24 23 24 26 27 27 25 25 25 26 27 29 30 31 31 32 33 33 32 33 36 43
22 24 26 28 29 29 29 28 24 23 31 37 36 34 34 33 29 23 19 19 19 19 18 18 19 20 20 20 21 22 22 23 24 24 23 21 19 19 18 17 17 18 19 19 18 18 19 20 19 18 19 21 21 20 19 19 19 19 20 22 22 22 22 22 23 25 26 25 24 24 25 26 28 29 30 30 29 29 31 34 33 32 32 34 40
19 21 23 25 26 26 26 24 21 23 31 37 36 35 35 34 30 25 21 22 22 20 18 17 18 19 18 18 18 18 18 19 21 22 21 19 17 16 16 17 18 19 19 19 18 19 19 19 18 18 19 21 20 20 19 18 19 20 20 20 19 19 20 22 24 24 23 23 23 24 26 27 29 30 30 29 29 30 32 35 35 35 34 34 39
17 19 21 23 24 25 25 23 20 22 29 36 38 38 38 35 30 27 25 24 23 21 20 18 17 17 17 16 16 15 16 17 18 18 17 16 15 16 17 18 19 19 19 18 18 18 19 18 18 19 20 20 19 18 18 17 17 17 17 17 18 19 21 22 22 21 21 22 24 25 27 27 28 29 29 29 30 32 35 37 38 37 35 35 40
14 16 19 22 23 25 25 23 20 21 27 34 38 38 35 32 29 27 25 23 22 22 20 19 17 17 16 15 14 15 16 16 17 16 14 14 15 17 18 18 18 18 18 18 18 18 18 18 19 19 19 18 17 16 15 14 14 15 16 17 19 20 21 20 19 20 21 23 25 26 27 27 26 27 28 30 31 34 38 39 39 37 35 35 42
12 15 17 19 21 23 25 23 21 23 27 32 34 33 30 29 28 26 24 22 21 20 19 18 18 17 15 14 14 15 15 15 14 14 14 14 16 17 18 18 18 18 18 17 17 17 18 18 18 18 18 17 15 14 13 14 15 16 18 19 19 19 18 18 19 21 23 24 25 26 26 26 26 27 29 31 34 36 38 39 39 37 34 36 43
13 15 15 17 19 22 23 21 20 23 26 29 30 30 29 30 28 26 23 21 19 17 18 18 17 15 14 14 15 16 15 14 14 15 15 16 17 18 18 18 18 18 17 16 16 17 18 18 17 18 17 15 14 14 14 15 17 18 19 18 17 16 17 19 21 22 23 24 25 25 25 26 28 30 33 35 36 37 35 35 36 35 32 35 42
15 15 15 17 19 21 21 19 20 23 25 26 28 30 31 30 27 23 21 18 15 15 16 16 14 14 14 15 16 16 15 15 15 16 16 17 17 18 18 18 18 17 16 15 15 16 17 16 16 15 14 13 13 14 15 16 17 18 17 15 15 16 19 21 22 22 22 23 24 26 27 29 31 34 36 36 36 33 30 30 31 30 29 33 40
15 15 17 18 20 21 21 21 22 24 24 25 27 29 29 26 22 19 17 15 14 14 14 14 13 13 14 15 15 15 15 15 16 16 17 17 17 18 18 17 17 16 15 14 15 15 14 13 12 12 12 13 14 14 16 17 18 16 14 14 16 19 20 21 20 20 21 23 25 28 30 32 34 35 35 33 30 27 26 27 28 26 26 31 37
13 15 18 20 21 22 22 22 23 23 23 23 24 25 23 20 18 17 15 14 13 13 13 12 13 14 15 15 14 14 14 15 16 16 16 16 17 17 17 17 16 15 13 13 13 12 10 10 9 10 12 13 14 15 17 17 15 13 13 16 19 20 19 18 19 19 21 24 27 29 31 32 33 32 30 29 27 25 24 25 25 23 24 28 35
12 15 18 19 20 20 21 22 21 20 19 19 20 20 19 17 16 15 14 13 12 12 12 13 14 15 15 14 13 14 14 15 15 15 16 16 16 17 17 16 14 12 11 11 10 9 8 9 9 11 13 14 15 15 15 14 12 13 16 18 19 18 17 17 18 20 23 25 28 29 29 29 28 27 27 27 26 25 24 23 23 21 21 25 32
13 15 17 18 19 20 21 21 18 15 16 19 20 19 17 15 14 13 12 11 11 11 13 15 15 15 14 13 13 13 14 14 15 15 15 15 15 15 14 12 10 9 9 9 9 8 8 9 11 12 14 14 13 12 11 11 13 15 16 16 16 16 17 18 20 22 25 27 27 27 26 25 25 25 25 25 25 24 23 23 23 21 20 22 28
13 14 14 15 16 16 17 17 16 16 18 19 17 15 13 13 12 12 11 10 10 12 14 15 15 14 13 13 12 12 12 13 14 14 14 13 13 12 10 9 8 9 9 9 9 10 10 12 13 14 14 13 11 10 11 13 14 14 14 14 14 16 17 19 22 24 25 25 24 23 23 23 23 24 23 23 23 23 22 22 22 21 20 20 25
11 11 11 12 13 14 15 16 17 19 19 17 13 12 12 11 11 10 9 9 10 12 13 14 13 13 12 12 12 12 12 13 13 13 11 10 9 9 9 8 9 9 9 10 11 13 14 14 14 14 13 12 11 11 11 12 12 12 13 13 14 16 19 22 23 23 22 21 20 19 20 21 22 23 23 22 22 23 22 21 22 22 20 17 21
15 15 15 15 16 16 16 16 17 18 17 15 12 10 10 10 10 10 9 9 11 11 11 11 11 11 12 11 11 11 12 12 11 9 8 8 8 8 9 10 10 10 11 12 13 14 15 15 14 13 12 11 10 10 9 9 10 11 12 13 15 18 21 22 21 19 18 17 17 18 19 20 21 22 23 23 22 24 23 22 22 23 21 17 17
18 17 15 15 16 16 15 14 14 13 12 11 10 10 11 11 10 9 9 10 11 11 11 11 12 12 11 11 10 11 11 10 8 7 7 8 9 10 11 11 12 12 12 13 13 14 15 15 13 12 10 9 9 9 8 9 10 10 12 14 17 20 21 19 17 16 16 15 16 17 18 20 21 21 22 23 23 24 24 23 22 23 22 19 16
18 17 15 15 15 14 13 12 11 10 10 10 10 10 10 10 9 10 11 12 12 11 12 13 12 11 11 10 10 10 9 8 7 6 7 9 10 11 11 11 12 12 13 13 13 14 14 13 11 9 8 8 8 9 8 8 9 11 13 16 18 19 18 16 15 15 14 14 15 17 17 19 20 21 22 23 23 24 24 23 22 22 22 22 19
16 14 13 14 14 14 13 13 12 11 11 11 10 10 10 10 11 12 12 12 12 12 13 13 12 11 10 10 9 8 7 5 5 5 6 6 7 8 9 10 11 12 13 13 13 13 12 10 9 8 8 8 8 8 8 9 10 12 14 16 18 17 15 13 13 13 14 14 15 16 17 18 19 20 20 21 23 24 24 24 23 22 22 22 21
15 12 12 13 13 12 12 11 11 11 11 11 11 12 13 13 13 13 12 12 12 13 13 12 11 10 10 9 8 6 5 4 3 3 4 4 5 7 8 10 11 12 13 13 12 11 10 9 8 8 8 8 8 8 9 10 11 13 15 16 15 13 12 11 12 12 13 14 15 15 16 17 18 19 19 20 21 23 24 23 23 22 22 23 22
14 13 12 12 11 10 10 9 10 10 10 11 12 12 13 13 12 11 11 11 12 12 12 11 10 8 8 7 6 5 4 4 3 3 5 5 6 8 10 11 11 12 12 13 11 9 8 7 6 6 7 7 8 9 10 10 11 13 14 14 13 11 10 11 12 12 13 14 14 15 15 17 18 18 19 19 20 21 23 23 22 21 21 22 22
12 12 12 11 9 9 10 10 9 9 9 9 10 11 11 11 10 10 10 11 11 11 10 9 8 8 7 6 5 6 6 5 3 5 6 7 8 9 11 12 12 11 11 11 10 7 6 5 5 6 8 10 11 12 12 11 11 12 13 13 11 10 10 11 11 12 13 13 14 14 15 16 18 18 19 20 20 20 21 21 21 20 19 20 22
11 12 12 11 10 10 10 9 9 9 9 10 10 9 9 9 9 9 10 11 11 11 10 9 9 8 7 5 5 7 6 4 5 6 7 8 9 10 11 12 12 10 9 9 7 5 5 5 7 10 12 14 15 15 13 11 11 11 11 10 9 9 10 10 10 11 12 12 13 14 15 16 17 18 18 19 20 20 20 20 21 20 19 19 21
13 13 12 12 11 10 9 8 8 9 9 9 9 9 9 9 9 9 10 10 11 10 9 9 9 8 7 7 7 7 6 6 7 8 9 10 10 11 12 12 11 9 8 8 6 5 6 8 11 12 13 13 13 12 10 9 9 9 9 8 7 8 9 9 9 10 11 12 12 13 14 15 17 17 18 19 20 20 20 20 20 19 19 19 19
15 13 12 11 10 9 8 8 8 8 8 8 9 9 9 9 9 9 9 10 10 9 8 9 9 8 8 8 8 8 8 8 8 9 10 11 12 12 12 11 10 9 8 7 6 6 8 10 10 10 11 10 9 8 7 7 7 7 7 7 7 7 8 8 9 9 10 11 12 13 14 15 16 17 18 19 20 20 20 20 20 19 19 19 18
12 13 12 11 10 9 8 8 8 8 9 9 10 10 9 9 9 8 8 9 10 9 9 10 10 10 10 9 8 8 9 9 10 10 11 11 11 11 11 11 10 9 8 7 6 6 8 8 8 8 9 8 7 5 4 4 5 6 6 7 7 8 8 9 9 10 11 11 12 12 13 14 15 17 18 19 20 20 19 19 19 19 18 18 18
10 10 10 9 9 9 9 8 8 8 9 9 9 9 8 8 9 9 9 9 10 10 10 11 11 11 10 9 8 9 10 10 11 11 11 11 11 11 11 10 9 9 8 7 7 7 7 7 8 8 7 6 5 4 3 4 5 5 6 7 8 8 9 9 9 10 10 11 11 12 12 13 14 16 17 18 18 18 19 19 19 19 18 17 17
9 8 8 8 9 8 8 8 8 8 8 8 7 7 7 7 8 8 9 9 9 9 10 11 11 11 11 10 9 10 11 11 11 11 11 10 10 10 10 9 9 9 8 7 6 6 6 7 8 8 7 5 4 4 3 4 5 6 6 7 8 8 9 9 9 9 9 10 10 10 11 11 12 14 15 17 17 17 17 18 18 18 18 17 16
8 8 8 9 8 7 7 8 8 8 7 6 6 5 6 6 6 7 7 8 7 8 8 9 10 10 10 10 10 10 11 11 11 11 11 11 10 10 10 9 8 8 7 6 5 5 5 7 8 8 6 5 4 4 4 4 5 6 7 7 8 9 9 9 9 8 8 8 9 9 9 10 11 12 14 15 17 17 17 17 18 18 17 16 16
7 8 9 8 7 7 8 8 8 7 6 5 5 5 5 5 5 6 7 7 7 8 9 10 10 10 11 11 11 11 12 12 11 11 12 11 11 10 9 9 9 8 7 6 6 6 6 7 8 8 6 5 4 4 4 4 5 6 6 7 8 9 9 8 7 7 6 6 7 7 8 8 9 10 12 14 15 15 16 16 16 17 16 16 15
6 7 8 8 8 8 9 9 8 7 6 6 5 5 6 7 7 8 9 9 10 10 11 12 13 13 13 13 12 11 11 11 12 12 12 12 11 11 10 10 9 9 8 8 7 7 7 8 8 8 6 5 4 4 4 4 5 5 6 7 8 9 9 7 6 4 4 4 4 5 5 6 7 8 10 12 13 14 14 15 15 15 15 15 15
4 5 7 8 9 9 9 9 8 7 7 7 7 8 9 10 11 12 13 14 14 14 14 15 15 16 16 15 14 13 11 11 12 13 13 13 12 12 11 10 10 9 8 8 8 7 8 8 9 8 7 6 5 4 4 4 4 4 5 6 8 9 9 7 4 2 2 1 2 3 3 4 5 7 8 10 12 12 13 14 14 14 13 13 13
Wind_Direction
220 221 221 221 221 220 221 221 221 221 222 224 228 234 239 238 237 235 234 234 232 228 222 211 206 208 206 201 197 200 209 218 236 258 270 279 287 291 292 292 295 299 299 297 294 288 285 284 284 285 285 285 286 288 288 288 288 288 288 289 290 291 292 291 290 292 295 297 299 301 303 304 306 310 313 315 315 314 312 311 313 318 322 323 323
222 222 222 222 222 222 222 222 222 222 223 225 228 233 239 238 235 233 231 232 229 221 213 206 206 211 207 205 208 215 224 231 245 260 270 279 285 288 289 288 289 292 294 297 297 292 288 286 287 289 287 285 286 287 286 286 285 286 286 287 289 290 291 293 294 295 295 296 298 300 302 303 305 308 311 313 314 313 310 310 312 317 321 323 322
224 225 225 225 224 224 224 223 221 222 221 222 225 233 241 239 233 231 232 231 224 214 209 207 211 215 215 217 223 229 236 242 250 260 269 276 281 286 287 287 287 288 290 293 295 292 289 289 291 293 290 287 288 287 286 286 286 287 288 288 289 289 290 292 294 295 296 297 298 299 301 303 305 307 309 311 312 310 308 308 311 316 321 322 321
227 228 227 228 228 227 226 224 221 219 217 217 222 232 240 239 233 230 231 230 222 214 211 212 217 224 227 231 236 242 247 252 258 264 269 275 280 285 287 287 287 287 285 286 288 289 289 290 294 296 293 290 290 289 288 289 290 290 290 290 290 290 289 290 291 293 295 295 296 297 300 302 304 305 308 310 310 307 306 307 310 316 320 321 321
231 230 231 232 231 229 228 225 221 218 215 214 221 232 237 237 233 231 232 230 223 216 216 219 224 232 237 241 247 251 255 259 263 267 272 277 281 283 284 286 286 283 279 280 283 287 290 292 295 297 294 292 292 291 290 291 292 292 292 293 292 291 290 288 289 290 291 292 293 295 298 300 301 303 306 309 309 307 307 307 311 316 319 320 322
232 233 233 233 234 233 229 223 218 215 213 212 220 232 238 237 233 233 235 233 226 222 223 224 228 238 244 249 255 258 261 263 267 273 279 281 282 282 284 287 286 281 278 279 282 286 290 293 296 296 294 293 293 294 293 293 293 294 295 296 295 293 291 290 290 289 289 290 292 295 297 299 300 302 304 307 308 309 309 309 312 317 319 320 323
234 235 234 235 237 232 223 216 212 212 216 219 222 228 237 238 234 233 234 231 226 223 223 218 220 237 247 250 256 261 263 266 271 278 282 283 284 285 287 287 285 281 281 281 282 286 291 295 297 297 295 294 293 294 294 293 293 295 296 298 296 294 293 294 294 293 292 293 294 295 297 298 299 300 304 308 307 308 311 311 312 317 319 319 320
236 236 236 236 232 223 217 217 218 218 220 221 218 218 226 234 233 231 232 228 223 221 218 211 215 233 244 249 253 258 262 266 274 278 280 283 284 284 284 282 282 283 285 285 285 289 293 297 298 297 295 293 291 291 290 290 292 293 295 297 296 293 292 294 296 296 296 295 296 297 297 298 298 300 304 308 307 308 311 311 310 314 317 316 316
238 238 237 233 226 224 225 223 220 219 218 217 213 210 216 225 227 228 226 218 216 222 218 213 218 230 240 245 249 255 262 268 272 275 277 280 278 277 277 278 282 285 286 287 289 292 296 298 297 297 295 294 291 288 286 286 288 289 291 293 292 290 290 292 294 296 297 296 296 297 297 297 299 302 305 307 308 309 311 309 308 311 314 312 312
240 238 234 231 230 232 230 223 219 218 215 214 212 208 209 214 219 225 221 213 221 236 228 220 222 230 238 243 247 254 263 267 269 272 274 273 269 269 272 275 281 285 287 292 295 297 299 298 297 297 296 295 293 288 285 283 283 284 286 286 286 286 286 288 291 294 295 295 295 297 297 298 300 303 304 305 307 309 309 308 307 310 312 311 311
239 235 234 234 236 236 230 222 218 213 211 211 207 205 208 211 216 220 216 217 230 238 228 225 228 232 238 243 247 255 263 266 268 270 269 267 267 269 272 275 279 284 287 292 298 301 301 299 298 296 295 295 293 290 289 288 286 284 282 280 280 280 282 284 287 290 292 292 293 295 296 297 300 302 303 304 306 307 306 304 305 308 310 311 312
237 236 236 236 238 237 231 222 215 211 215 212 204 204 210 212 215 215 216 227 235 225 222 225 229 233 239 245 249 256 264 268 269 269 268 270 275 277 277 278 282 286 289 292 296 300 300 298 296 294 294 294 293 292 293 295 294 290 284 279 277 277 278 281 284 286 288 290 292 294 295 296 299 300 301 303 305 304 302 301 302 305 307 308 311
240 240 239 238 239 238 231 221 214 213 217 211 204 208 212 212 215 216 221 236 232 221 224 228 230 235 241 247 253 259 266 270 269 266 267 275 283 282 280 281 284 289 292 293 295 297 297 295 292 291 291 293 294 296 295 296 297 294 289 283 280 277 277 279 281 282 285 289 291 293 294 295 298 299 300 302 303 300 298 299 301 303 303 304 308
244 242 240 239 238 234 228 219 212 212 214 208 205 213 215 213 214 218 228 236 225 221 227 231 233 238 243 250 257 263 269 272 268 264 266 275 283 284 285 285 287 292 294 293 294 295 295 293 290 289 290 292 296 298 296 296 296 294 291 287 284 281 279 279 279 280 283 288 291 292 293 294 297 299 300 300 299 296 297 300 301 300 299 301 304
247 243 239 236 233 230 225 216 211 218 218 204 200 209 215 214 213 220 233 234 226 226 232 236 239 242 246 253 260 264 269 270 266 264 266 273 280 284 286 288 290 296 299 296 294 295 295 294 290 289 290 293 296 298 295 294 294 293 292 290 286 284 283 282 279 279 285 289 291 293 294 296 298 299 299 298 296 294 297 300 300 299 298 300 303
246 240 235 232 230 229 225 214 212 221 213 197 195 203 209 211 213 221 233 234 231 233 237 240 242 244 248 254 259 263 268 267 262 262 265 271 276 280 284 288 292 299 303 300 295 295 298 296 292 291 291 292 296 297 296 293 292 292 293 292 290 288 286 285 282 282 287 290 292 295 297 299 299 299 299 298 295 296 298 299 301 302 301 301 305
243 237 233 231 231 230 225 215 214 216 205 195 195 199 203 209 216 225 236 239 237 239 241 243 245 247 250 255 259 264 266 263 261 263 268 273 277 279 283 288 295 302 305 300 295 297 300 297 293 291 290 291 295 296 294 291 289 291 292 292 292 290 289 288 286 286 289 291 293 297 299 300 299 298 298 298 297 299 302 302 305 308 305 303 307
242 238 236 235 232 230 225 218 214 213 205 198 197 200 203 208 218 231 241 244 243 244 247 249 250 251 255 258 262 264 264 263 264 267 273 279 280 281 284 291 298 303 303 298 296 298 299 294 291 290 290 292 295 295 291 289 289 291 292 291 290 290 290 290 289 290 292 294 296 299 300 300 300 299 301 303 303 305 306 307 310 309 305 305 311
245 242 241 238 232 230 228 222 218 217 208 200 200 204 206 210 222 236 244 246 247 249 251 251 251 253 257 261 263 263 263 264 265 269 277 282 282 284 289 295 299 300 298 296 297 297 296 291 288 290 292 295 298 296 293 291 291 291 291 290 291 291 291 292 293 295 298 300 303 304 302 302 304 306 308 309 308 309 309 311 311 307 304 307 313
252 248 244 239 233 232 231 225 223 220 208 201 202 209 213 216 225 236 244 249 253 255 251 250 252 255 260 263 264 264 265 263 263 269 278 283 284 289 295 296 296 295 295 298 299 298 294 288 286 288 292 296 300 299 296 294 292 291 291 290 291 291 292 294 296 300 305 308 309 309 308 309 311 312 312 311 311 312 313 313 313 310 306 307 314
256 249 243 239 236 235 231 227 226 221 207 202 206 214 217 217 222 233 244 253 260 260 253 250 254 258 262 265 266 267 267 264 265 273 280 283 287 291 294 292 292 295 299 300 300 297 292 287 285 286 291 299 303 302 298 295 291 290 289 288 289 292 296 299 303 308 311 312 312 313 315 316 315 314 314 314 315 317 318 319 318 314 308 307 314
257 251 245 241 237 235 231 227 228 222 209 205 210 215 214 214 221 234 250 260 266 266 258 254 257 259 263 267 268 270 270 269 271 278 281 284 287 288 288 290 295 299 300 299 298 295 290 287 285 287 295 303 307 304 300 295 289 286 287 288 291 297 302 307 311 312 312 313 315 317 318 316 316 316 317 318 320 322 324 326 324 318 312 310 316
261 253 247 243 238 233 228 226 228 222 212 209 213 214 213 215 223 238 256 266 270 269 263 260 260 260 264 270 273 275 275 273 274 278 280 282 283 285 289 295 299 300 298 297 295 291 288 288 288 291 299 306 307 304 300 294 288 288 290 294 300 306 310 311 312 311 312 315 317 317 317 317 318 320 320 321 323 326 327 328 328 324 319 316 320
261 252 246 241 234 229 226 225 226 219 213 213 215 216 217 220 229 243 258 266 267 266 262 261 262 265 272 277 278 279 278 277 278 279 278 278 281 288 295 298 298 298 297 296 293 290 289 290 291 295 302 306 306 303 299 295 293 296 301 306 311 312 311 311 311 313 316 318 317 318 319 321 321 322 323 325 326 328 329 328 329 329 324 322 325
254 247 242 237 231 226 225 226 223 216 213 215 218 219 221 225 235 249 260 264 266 265 263 264 269 275 280 281 280 280 280 280 280 277 274 277 285 292 296 296 297 298 297 296 294 293 292 292 294 299 304 307 308 306 302 301 304 309 312 314 313 312 311 311 313 317 319 319 319 320 321 321 322 323 325 327 327 329 329 328 329 330 327 326 330
242 241 238 234 229 225 223 222 218 213 213 215 217 219 221 226 239 255 264 265 266 266 266 268 274 279 282 281 279 279 280 280 278 276 277 283 289 293 296 297 299 299 298 298 296 294 293 295 298 302 306 309 311 309 309 312 316 318 317 316 313 312 313 315 317 319 320 320 321 321 321 322 324 324 326 327 327 327 328 327 328 330 330 333 337
235 235 232 226 223 220 218 215 211 209 212 216 218 221 223 229 242 258 264 263 264 265 268 271 274 278 280 280 280 279 280 281 280 280 283 287 291 295 298 300 300 300 300 298 294 293 295 298 301 304 306 309 309 308 310 314 317 319 317 316 315 314 315 318 320 321 321 321 321 322 323 325 326 327 328 327 325 325 326 326 328 330 334 341 344
235 231 224 219 218 216 214 212 209 209 213 218 222 226 230 237 248 258 262 263 266 267 268 270 272 274 276 277 278 280 282 282 281 283 285 288 292 297 299 301 301 300 298 294 290 291 295 299 302 302 301 301 302 304 308 312 314 315 314 315 316 316 316 318 319 320 321 322 323 324 326 327 328 328 327 326 325 326 327 327 330 333 339 348 349
233 224 217 215 215 213 212 213 212 212 214 218 223 229 236 245 255 261 262 264 266 264 264 266 269 273 275 277 280 280 280 280 282 284 286 290 295 299 300 300 299 296 292 289 287 289 294 298 300 298 293 294 297 299 304 309 310 309 309 312 315 315 315 317 318 320 322 324 326 328 329 329 329 328 327 327 328 330 330 330 335 339 343 351 354
224 211 205 205 207 210 211 210 210 210 212 217 225 235 245 254 261 263 262 262 259 259 263 267 269 272 274 275 277 276 277 280 283 286 290 295 298 298 296 295 294 292 287 285 286 290 296 299 297 291 287 289 292 295 300 304 303 299 303 310 313 314 315 317 319 323 326 328 330 331 330 330 329 330 331 332 333 335 334 335 342 345 345 353 359
209 201 195 194 195 200 203 201 201 204 212 220 230 243 254 259 261 261 259 258 258 262 268 269 268 268 270 272 274 275 278 282 286 289 294 295 293 292 292 292 292 289 285 285 289 295 301 300 294 289 288 292 296 298 299 298 295 296 304 310 312 312 315 318 322 327 330 331 332 332 331 332 333 335 337 337 335 336 337 340 346 350 349 355 4
193 189 186 186 189 195 199 198 197 204 220 230 237 248 256 256 253 253 253 255 261 266 267 264 263 265 268 271 273 275 280 285 290 291 291 288 286 286 289 292 293 289 286 287 291 296 300 300 296 295 298 303 306 305 302 299 300 303 307 310 312 314 317 322 327 332 333 334 334 334 334 337 340 341 341 339 337 338 342 345 349 351 350 356 8
173 176 179 182 188 195 198 199 200 209 224 236 244 249 252 250 248 250 252 255 260 260 258 258 260 265 268 270 273 277 283 288 288 287 284 282 281 282 288 296 297 291 288 287 288 292 295 296 296 298 303 308 307 304 304 304 305 307 310 314 319 321 324 329 332 333 334 334 335 338 341 344 346 346 346 345 343 344 347 349 350 351 350 357 11
182 197 209 209 206 207 210 211 211 213 224 239 249 250 249 248 249 252 254 256 257 256 255 257 261 265 268 271 274 280 282 282 282 282 281 279 279 285 296 304 301 295 289 285 285 290 294 296 298 301 303 304 303 302 304 306 307 310 315 321 326 329 331 332 333 332 334 337 340 344 349 351 351 351 351 351 353 354 353 352 352 353 353 359 13
218 228 232 224 216 219 224 224 218 217 226 240 248 248 247 246 247 251 253 251 252 255 258 261 262 264 266 269 273 276 276 277 279 281 280 279 286 296 303 305 301 294 288 284 284 287 291 295 299 302 302 301 300 300 303 307 309 315 321 326 331 332 332 331 332 334 338 343 348 353 357 356 356 355 355 357 0 1 359 356 354 355 357 2 12
228 227 224 219 220 225 227 222 218 220 229 240 244 243 243 242 244 249 250 247 248 251 256 259 261 262 263 265 268 270 272 274 279 284 285 291 298 302 301 298 294 289 285 283 283 285 288 292 297 299 299 297 297 300 306 311 316 322 329 332 332 331 329 330 335 341 346 350 355 0 1 360 359 358 358 1 5 5 3 360 356 355 358 3 8
223 216 216 220 224 225 221 217 218 220 223 226 229 230 233 238 242 244 243 242 244 248 253 257 258 259 260 262 266 268 270 274 281 290 297 300 301 301 300 299 295 289 284 283 281 282 286 289 293 297 297 294 296 302 308 316 324 330 333 333 331 329 330 335 342 347 352 355 358 2 3 2 1 360 360 2 6 7 6 3 0 357 356 359 2
218 217 224 227 225 221 217 214 213 211 210 214 218 222 226 233 235 236 238 239 242 249 254 255 255 256 257 258 261 266 273 278 281 289 298 303 306 309 312 312 306 296 289 285 282 281 283 287 292 297 298 295 297 304 310 317 327 332 331 330 328 328 333 341 347 352 355 357 358 360 3 4 3 1 1 3 5 7 7 6 4 0 356 357 360
220 228 233 227 219 214 211 209 210 211 213 218 225 229 230 228 227 229 234 238 243 248 251 250 252 256 254 252 255 263 268 268 272 291 311 323 331 335 335 330 319 305 294 288 285 283 284 286 287 287 288 291 298 307 313 319 325 327 327 327 327 329 335 342 349 355 358 357 357 359 3 7 6 3 4 6 6 6 8 9 8 5 0 358 0
228 228 223 213 206 205 208 213 218 220 222 228 232 232 228 225 225 228 233 238 242 246 248 249 252 253 254 255 252 238 222 222 247 301 319 324 332 340 341 335 325 311 296 287 283 282 280 277 269 268 279 292 302 309 314 318 319 321 324 326 327 329 334 341 350 357 358 358 358 359 2 7 8 5 5 8 9 8 8 9 10 10 5 1 2
220 216 209 203 203 210 217 223 227 230 233 235 232 228 225 226 227 228 229 231 235 239 240 238 234 238 253 260 233 201 196 214 258 298 309 312 323 333 336 331 324 311 293 281 278 273 260 251 258 276 291 298 301 303 307 311 314 318 321 323 324 328 335 341 349 354 355 356 358 0 4 9 9 7 7 10 10 10 10 10 12 13 10 7 8
216 215 208 205 210 216 218 219 222 227 230 227 223 223 227 229 228 227 227 227 229 229 226 221 222 231 248 248 219 202 207 233 269 288 297 305 314 321 322 321 315 302 282 270 262 252 247 264 287 297 296 292 291 292 295 301 309 315 317 319 320 327 333 339 345 349 352 354 357 359 3 8 9 8 8 10 11 11 11 11 13 15 15 13 12
216 213 206 203 204 204 204 209 216 221 221 221 222 227 230 230 228 229 230 228 224 219 216 218 226 231 229 221 216 218 227 246 267 282 295 306 311 313 314 313 305 286 266 253 244 250 277 294 300 299 297 292 290 290 291 296 305 310 311 314 318 323 328 334 340 345 347 351 354 356 359 5 9 10 10 12 13 12 12 12 13 16 18 18 16
211 204 202 198 193 192 201 214 222 222 219 220 224 227 229 229 229 230 231 225 217 213 215 220 225 225 220 219 223 228 237 251 267 282 295 304 308 310 312 311 299 278 259 246 243 264 287 295 295 296 297 296 295 294 293 295 301 306 308 311 314 318 323 329 336 341 344 348 352 353 356 1 6 9 12 14 13 11 11 13 14 14 17 18 18
201 197 201 196 191 200 214 219 220 219 217 219 224 226 227 227 227 228 227 217 211 213 217 220 222 223 223 226 232 237 245 256 268 278 289 299 305 310 313 308 294 274 256 244 248 269 284 290 295 302 304 300 295 294 293 292 297 302 306 309 311 314 319 325 330 334 338 341 345 348 352 359 3 7 12 16 15 11 10 12 14 15 16 16 17
196 203 208 198 193 203 211 212 213 216 218 221 225 226 226 227 227 228 226 220 217 219 219 220 226 229 228 231 237 242 248 259 269 276 284 293 301 308 311 303 288 270 257 253 261 274 282 291 303 312 313 308 303 300 296 294 296 299 302 307 311 312 313 316 318 322 327 332 337 342 348 354 359 4 10 15 15 12 10 10 14 18 19 17 16
216 220 212 195 192 198 202 207 214 219 221 224 225 224 226 227 226 226 227 227 229 229 228 229 234 235 235 241 249 251 255 264 271 275 280 288 295 301 304 299 288 275 264 262 269 274 279 292 307 314 316 312 309 305 300 299 301 304 307 312 313 311 308 307 308 310 315 322 328 335 343 351 356 1 8 14 16 15 13 12 14 18 22 23 22
215 208 193 186 190 198 205 211 216 217 217 217 216 218 223 225 226 232 237 240 243 247 248 248 246 242 243 252 260 262 263 266 269 271 273 278 286 292 294 291 284 271 258 255 264 272 283 296 305 310 311 306 300 297 298 301 306 312 316 318 316 313 309 307 305 305 307 313 322 330 339 347 353 358 5 12 15 17 17 16 16 18 21 25 27
199 195 192 194 202 208 208 207 205 202 201 201 204 212 221 226 233 242 247 250 254 257 257 255 251 248 251 258 263 264 264 264 267 270 270 272 278 283 284 283 278 264 250 247 260 276 288 296 302 305 304 297 287 283 288 301 312 319 323 323 321 318 316 311 305 301 300 305 315 327 337 345 350 357 5 11 14 17 20 20 18 18 19 23 28
185 191 196 201 205 204 199 195 192 192 199 207 214 224 231 236 243 248 251 252 255 256 257 256 253 251 252 254 254 256 264 272 274 270 266 268 273 276 276 278 276 265 249 245 258 275 285 290 298 302 298 288 282 282 287 303 317 321 321 322 323 324 324 320 308 295 291 299 312 326 340 349 351 357 6 11 13 17 23 24 21 20 20 20 24
183 197 205 205 201 196 194 194 198 208 219 227 234 241 245 248 251 253 253 252 253 254 256 257 256 253 252 251 248 248 258 272 273 266 261 264 268 271 272 272 270 263 253 249 257 272 281 285 294 299 291 277 274 279 286 304 318 320 319 323 327 329 331 329 318 286 265 288 325 336 350 5 7 5 9 13 12 15 24 27 25 21 21 21 23
Height
1509 1510 1512 1514 1516 1518 1520 1522 1525 1527 1529 1531 1533 1535 1537 1538 1539 1540 1540 1541 1541 1542 1542 1543 1544 1544 1544 1544 1544 1544 1545 1545 1545 1545 1545 1544 1544 1544 1544 1544 1544 1544 1544 1544 1544 1543 1543 1542 1541 1541 1541 1541 1540 1540 1539 1538 1537 1536 1536 1535 1535 1535 1534 1533 1530 1527 1525 1526 1525 1525 1525 1523 1522 1521 1520 1518 1517 1516 1515 1514 1513 1511 1509 1507 1505
1504 1506 1508 1510 1513 1515 1517 1520 1523 1526 1528 1530 1532 1534 1536 1537 1538 1538 1538 1539 1540 1540 1541 1543 1543 1543 1543 1543 1543 1543 1544 1544 1544 1543 1543 1542 1542 1542 1542 1542 1542 1542 1542 1542 1542 1542 1541 1540 1539 1539 1539 1538 1538 1537 1536 1536 1535 1534 1534 1533 1532 1532 1532 1531 1529 1526 1523 1522 1522 1522 1522 1521 1518 1518 1517 1515 1513 1512 1511 1510 1509 1507 1506 1504 1502
1500 1502 1504 1507 1510 1512 1515 1518 1521 1524 1526 1528 1531 1533 1535 1536 1536 1536 1537 1537 1538 1539 1540 1541 1542 1542 1542 1542 1542 1543 1543 1543 1543 1542 1541 1541 1540 1540 1540 1540 1540 1541 1540 1540 1540 1540 1539 1538 1538 1537 1537 1536 1535 1535 1534 1534 1533 1532 1531 1531 1530 1529 1529 1529 1527 1525 1522 1520 1519 1519 1518 1518 1515 1514 1513 1512 1510 1509 1507 1506 1505 1504 1502 1500 1498
1497 1499 1501 1504 1508 1510 1513 1516 1519 1520 1522 1524 1527 1531 1534 1535 1534 1534 1535 1536 1537 1538 1539 1540 1541 1541 1541 1541 1542 1542 1542 1542 1541 1541 1540 1539 1539 1538 1538 1538 1538 1538 1538 1538 1538 1538 1537 1536 1536 1535 1535 1534 1533 1532 1532 1531 1530 1530 1529 1528 1528 1527 1527 1526 1525 1523 1521 1518 1517 1516 1515 1514 1512 1511 1510 1508 1507 1506 1504 1502 1501 1500 1498 1497 1494
1494 1496 1499 1502 1505 1508 1510 1513 1515 1517 1520 1523 1526 1529 1531 1532 1532 1532 1533 1534 1535 1536 1537 1538 1539 1540 1540 1540 1540 1541 1541 1541 1540 1539 1538 1538 1537 1537 1536 1536 1536 1536 1536 1536 1536 1536 1535 1534 1534 1533 1532 1531 1531 1530 1530 1529 1528 1527 1527 1526 1525 1524 1524 1523 1522 1521 1519 1516 1514 1513 1512 1511 1509 1508 1507 1505 1502 1501 1500 1498 1497 1496 1494 1492 1490
1491 1493 1496 1499 1501 1503 1507 1510 1514 1520 1523 1524 1525 1529 1530 1530 1530 1530 1531 1532 1533 1534 1534 1534 1535 1537 1538 1538 1538 1539 1539 1539 1538 1537 1537 1536 1535 1535 1534 1534 1534 1533 1533 1534 1534 1533 1533 1532 1532 1531 1530 1529 1528 1528 1527 1527 1526 1525 1524 1524 1523 1522 1521 1520 1519 1518 1517 1515 1512 1510 1509 1508 1506 1504 1504 1502 1499 1497 1495 1494 1493 1492 1490 1487 1485
1488 1490 1493 1495 1497 1500 1506 1511 1514 1517 1519 1519 1521 1525 1527 1527 1527 1528 1529 1530 1531 1531 1531 1531 1532 1533 1535 1535 1536 1536 1537 1537 1536 1535 1535 1534 1533 1532 1532 1532 1531 1531 1531 1531 1531 1531 1531 1530 1530 1529 1528 1527 1526 1525 1525 1524 1524 1523 1522 1521 1520 1519 1518 1517 1516 1515 1514 1512 1510 1508 1506 1505 1503 1501 1500 1499 1497 1494 1491 1488 1486 1486 1486 1483 1480
1484 1487 1488 1491 1494 1497 1502 1506 1507 1506 1507 1510 1514 1518 1521 1523 1524 1525 1527 1527 1528 1528 1527 1528 1529 1530 1531 1532 1533 1533 1534 1534 1534 1533 1532 1532 1531 1530 1530 1530 1529 1529 1529 1529 1529 1529 1528 1528 1527 1526 1525 1524 1523 1523 1522 1522 1521 1520 1520 1519 1518 1516 1515 1514 1514 1512 1511 1510 1508 1505 1503 1501 1500 1498 1497 1495 1493 1491 1490 1486 1482 1480 1480 1478 1476
1481 1482 1485 1488 1489 1488 1491 1495 1497 1498 1500 1503 1507 1510 1513 1517 1519 1521 1524 1524 1525 1525 1525 1525 1526 1527 1528 1529 1530 1530 1530 1531 1531 1531 1530 1530 1529 1529 1528 1528 1528 1527 1527 1527 1527 1526 1526 1525 1524 1523 1523 1522 1521 1520 1520 1519 1518 1517 1517 1516 1515 1513 1512 1512 1511 1510 1508 1507 1505 1503 1501 1498 1496 1495 1493 1492 1490 1488 1486 1483 1479 1476 1475 1472 1471
1476 1478 1481 1482 1482 1481 1484 1488 1491 1493 1495 1498 1502 1505 1508 1511 1515 1518 1520 1522 1522 1522 1522 1523 1523 1524 1525 1526 1527 1527 1527 1528 1528 1528 1528 1527 1527 1527 1526 1526 1526 1525 1525 1525 1524 1524 1523 1523 1522 1521 1520 1519 1518 1518 1517 1516 1515 1514 1514 1513 1512 1511 1509 1508 1508 1507 1505 1504 1502 1501 1498 1495 1493 1492 1490 1488 1487 1485 1482 1480 1476 1473 1471 1466 1463
1473 1475 1476 1476 1477 1478 1482 1486 1488 1492 1495 1497 1501 1504 1506 1509 1512 1515 1518 1519 1518 1518 1518 1520 1521 1522 1523 1524 1524 1525 1525 1526 1526 1526 1526 1525 1525 1524 1524 1523 1523 1523 1522 1522 1521 1521 1521 1520 1519 1518 1517 1516 1515 1515 1514 1513 1513 1511 1510 1509 1509 1508 1506 1505 1504 1504 1503 1501 1500 1498 1496 1492 1490 1489 1487 1485 1484 1481 1479 1476 1473 1469 1467 1462 1456
1471 1472 1472 1473 1474 1476 1481 1484 1486 1491 1495 1498 1502 1505 1507 1509 1511 1513 1516 1516 1515 1515 1515 1518 1519 1520 1521 1522 1522 1522 1523 1523 1524 1524 1524 1523 1523 1522 1521 1521 1520 1520 1519 1519 1518 1518 1518 1517 1516 1515 1514 1513 1512 1511 1511 1510 1509 1508 1507 1506 1505 1505 1504 1503 1502 1501 1500 1498 1497 1496 1494 1491 1488 1486 1484 1482 1480 1478 1475 1473 1470 1467 1464 1461 1455
1468 1469 1469 1471 1472 1475 1480 1481 1482 1488 1494 1500 1506 1507 1507 1509 1511 1513 1515 1514 1514 1514 1514 1515 1517 1518 1519 1520 1520 1521 1521 1522 1522 1522 1522 1521 1521 1519 1519 1518 1518 1517 1516 1516 1515 1515 1514 1514 1513 1512 1511 1510 1509 1508 1507 1506 1506 1505 1504 1503 1502 1502 1501 1500 1499 1498 1497 1496 1494 1493 1491 1489 1486 1483 1482 1480 1477 1474 1471 1469 1467 1464 1460 1458 1454
1465 1466 1467 1469 1471 1474 1478 1479 1481 1486 1491 1496 1503 1506 1506 1508 1510 1512 1513 1512 1511 1511 1512 1513 1515 1516 1517 1518 1519 1519 1519 1520 1520 1520 1520 1519 1518 1517 1516 1515 1515 1514 1514 1513 1513 1512 1511 1510 1509 1508 1508 1507 1506 1505 1504 1503 1502 1501 1501 1500 1499 1499 1498 1497 1496 1496 1495 1493 1491 1489 1488 1487 1484 1481 1479 1477 1474 1471 1468 1465 1463 1460 1456 1453 1450
1462 1464 1465 1467 1470 1473 1474 1475 1480 1485 1487 1490 1496 1501 1504 1506 1507 1508 1509 1507 1507 1508 1510 1511 1512 1513 1514 1516 1516 1517 1517 1518 1518 1518 1517 1516 1515 1514 1513 1513 1512 1512 1511 1510 1510 1509 1508 1506 1505 1504 1504 1504 1503 1502 1501 1500 1499 1498 1498 1497 1496 1496 1495 1494 1494 1493 1492 1490 1488 1486 1485 1483 1481 1479 1477 1474 1472 1469 1466 1462 1459 1455 1451 1448 1445
1460 1462 1464 1466 1468 1469 1469 1472 1478 1483 1485 1487 1490 1494 1498 1501 1502 1503 1503 1504 1504 1506 1507 1508 1510 1511 1512 1513 1513 1513 1514 1515 1515 1515 1514 1513 1512 1511 1510 1510 1509 1509 1508 1508 1507 1506 1504 1503 1501 1501 1500 1500 1500 1499 1498 1497 1496 1495 1495 1494 1493 1492 1492 1491 1491 1490 1489 1487 1485 1483 1482 1480 1478 1476 1474 1472 1469 1466 1463 1459 1456 1453 1448 1443 1439
1458 1460 1462 1463 1464 1465 1466 1469 1474 1477 1480 1483 1484 1487 1491 1495 1497 1498 1500 1501 1502 1504 1505 1507 1508 1509 1509 1510 1510 1510 1511 1512 1512 1512 1511 1510 1509 1508 1507 1507 1506 1505 1505 1504 1503 1502 1501 1499 1498 1498 1497 1497 1497 1497 1496 1494 1493 1493 1492 1491 1490 1489 1488 1488 1488 1487 1485 1484 1482 1480 1478 1476 1474 1473 1471 1469 1467 1464 1460 1455 1452 1449 1445 1439 1433
1455 1456 1458 1459 1460 1462 1464 1467 1471 1474 1476 1479 1480 1482 1486 1490 1493 1495 1497 1499 1500 1502 1504 1505 1506 1506 1507 1507 1507 1508 1508 1509 1509 1509 1508 1507 1506 1505 1505 1504 1503 1502 1501 1501 1500 1499 1498 1497 1496 1495 1495 1495 1494 1494 1493 1492 1491 1490 1489 1488 1487 1485 1485 1485 1484 1483 1482 1480 1479 1477 1474 1473 1471 1469 1468 1466 1464 1462 1458 1453 1449 1446 1441 1436 1430
1451 1453 1454 1456 1458 1459 1462 1466 1469 1471 1473 1475 1477 1480 1484 1488 1491 1493 1495 1497 1498 1500 1501 1502 1502 1503 1503 1504 1504 1505 1505 1506 1506 1506 1505 1504 1503 1503 1502 1501 1500 1499 1498 1497 1497 1496 1495 1495 1494 1493 1492 1492 1492 1491 1490 1489 1488 1487 1486 1485 1484 1483 1482 1481 1480 1479 1478 1476 1475 1473 1471 1469 1467 1465 1464 1462 1461 1459 1455 1451 1447 1443 1438 1433 1428
1449 1451 1453 1454 1456 1458 1460 1464 1466 1468 1470 1473 1476 1479 1482 1485 1488 1491 1493 1495 1496 1497 1498 1498 1499 1499 1500 1501 1501 1501 1502 1503 1502 1502 1502 1501 1500 1500 1499 1498 1497 1496 1495 1494 1493 1493 1493 1493 1492 1491 1490 1490 1489 1488 1487 1486 1485 1484 1483 1482 1481 1480 1479 1479 1477 1476 1474 1472 1471 1469 1467 1465 1464 1462 1460 1459 1457 1455 1452 1448 1445 1441 1436 1429 1424
1448 1450 1451 1452 1454 1457 1459 1461 1464 1466 1469 1472 1475 1478 1480 1483 1487 1490 1492 1493 1493 1494 1494 1494 1495 1496 1497 1497 1497 1498 1498 1499 1498 1499 1498 1498 1497 1497 1496 1495 1494 1492 1491 1491 1490 1491 1491 1490 1490 1489 1488 1487 1486 1485 1484 1483 1482 1481 1481 1480 1479 1478 1477 1476 1474 1473 1471 1469 1467 1466 1464 1462 1460 1459 1457 1455 1453 1450 1447 1444 1441 1437 1433 1427 1420
1447 1448 1449 1451 1453 1455 1457 1460 1463 1465 1468 1471 1474 1476 1478 1481 1485 1488 1490 1490 1490 1490 1490 1491 1492 1493 1494 1494 1494 1495 1495 1495 1495 1495 1495 1495 1494 1494 1493 1492 1491 1489 1488 1488 1488 1488 1488 1487 1487 1486 1485 1484 1483 1482 1481 1480 1480 1479 1478 1478 1477 1476 1475 1473 1471 1470 1468 1466 1464 1463 1461 1459 1457 1456 1454 1451 1449 1446 1443 1440 1437 1433 1430 1426 1420
1445 1446 1447 1449 1451 1453 1455 1458 1461 1463 1465 1469 1472 1474 1476 1479 1483 1485 1487 1487 1487 1487 1487 1488 1489 1489 1490 1491 1491 1492 1492 1492 1492 1492 1492 1492 1491 1491 1490 1489 1488 1487 1486 1486 1486 1485 1485 1484 1484 1484 1483 1482 1480 1479 1478 1478 1477 1477 1476 1476 1475 1474 1472 1471 1469 1467 1465 1464 1462 1460 1459 1457 1454 1452 1450 1447 1445 1442 1439 1435 1432 1429 1425 1421 1417
1444 1445 1445 1447 1449 1451 1454 1456 1459 1461 1463 1467 1469 1472 1475 1478 1481 1483 1484 1483 1484 1484 1484 1485 1486 1486 1487 1487 1488 1488 1488 1489 1489 1489 1489 1489 1488 1488 1487 1486 1485 1484 1484 1484 1483 1483 1482 1481 1481 1481 1480 1479 1478 1477 1476 1476 1475 1475 1474 1474 1472 1471 1470 1468 1466 1465 1463 1461 1460 1458 1456 1454 1451 1449 1446 1444 1441 1438 1435 1431 1428 1424 1420 1416 1411
1442 1443 1444 1445 1447 1450 1452 1455 1457 1459 1461 1464 1466 1469 1473 1476 1479 1480 1480 1480 1480 1480 1481 1482 1483 1483 1484 1484 1484 1485 1485 1486 1486 1486 1486 1486 1486 1485 1484 1483 1483 1482 1481 1481 1480 1480 1479 1478 1478 1478 1477 1476 1476 1475 1475 1474 1474 1473 1472 1472 1470 1469 1467 1466 1464 1462 1461 1459 1457 1455 1454 1451 1449 1447 1444 1441 1438 1435 1431 1427 1423 1420 1416 1411 1405
1441 1442 1443 1444 1446 1449 1451 1453 1455 1457 1459 1461 1464 1467 1470 1473 1475 1476 1477 1477 1477 1478 1479 1479 1480 1481 1481 1481 1482 1482 1483 1483 1483 1483 1483 1483 1483 1482 1482 1481 1480 1479 1479 1478 1478 1477 1476 1476 1475 1475 1474 1474 1474 1474 1473 1473 1472 1471 1471 1470 1468 1467 1465 1464 1462 1461 1459 1457 1455 1453 1451 1449 1447 1444 1442 1438 1436 1432 1428 1423 1419 1415 1411 1406 1399
1439 1440 1441 1443 1445 1447 1449 1451 1453 1455 1457 1460 1463 1465 1467 1469 1471 1473 1473 1474 1475 1475 1476 1477 1478 1478 1478 1479 1479 1479 1480 1480 1481 1481 1481 1481 1480 1480 1479 1478 1477 1477 1476 1476 1475 1475 1474 1473 1473 1473 1472 1472 1472 1472 1472 1471 1470 1470 1469 1467 1466 1465 1463 1462 1461 1459 1457 1455 1453 1451 1449 1447 1444 1441 1438 1435 1432 1429 1426 1421 1416 1412 1408 1403 1396
1437 1438 1440 1441 1444 1446 1448 1450 1452 1454 1456 1459 1461 1464 1465 1467 1468 1470 1470 1471 1471 1472 1473 1474 1475 1475 1475 1476 1476 1476 1477 1478 1478 1479 1479 1478 1478 1477 1476 1475 1475 1474 1474 1474 1473 1473 1472 1472 1471 1471 1471 1471 1471 1470 1470 1470 1469 1468 1467 1466 1464 1463 1462 1460 1459 1457 1455 1453 1451 1449 1446 1444 1441 1438 1435 1432 1430 1426 1423 1419 1414 1410 1406 1401 1395
1435 1436 1438 1440 1442 1444 1447 1449 1451 1453 1455 1457 1459 1461 1463 1465 1466 1466 1467 1468 1468 1470 1471 1472 1472 1473 1473 1473 1474 1474 1475 1476 1476 1476 1476 1476 1475 1474 1473 1473 1473 1472 1472 1472 1471 1471 1470 1470 1470 1470 1470 1470 1469 1469 1468 1468 1467 1466 1465 1464 1463 1462 1460 1459 1457 1456 1454 1452 1449 1447 1444 1441 1438 1435 1432 1429 1426 1423 1420 1416 1412 1408 1405 1401 1395
1434 1435 1437 1438 1441 1443 1445 1448 1450 1452 1453 1454 1456 1459 1460 1462 1463 1463 1464 1465 1466 1467 1468 1469 1470 1471 1471 1471 1472 1473 1473 1474 1474 1473 1473 1473 1472 1472 1471 1471 1471 1470 1470 1470 1469 1469 1469 1469 1469 1469 1469 1469 1468 1467 1467 1466 1466 1465 1464 1463 1461 1460 1458 1457 1456 1454 1452 1450 1447 1445 1442 1439 1436 1433 1429 1426 1423 1420 1418 1414 1411 1407 1404 1400 1395
1434 1435 1436 1437 1439 1441 1444 1446 1448 1450 1451 1453 1455 1457 1458 1459 1460 1461 1462 1463 1464 1465 1466 1467 1469 1469 1469 1470 1470 1471 1471 1471 1471 1471 1470 1470 1470 1470 1469 1469 1469 1468 1468 1468 1468 1468 1467 1467 1467 1467 1467 1467 1466 1465 1465 1464 1464 1464 1462 1461 1460 1458 1457 1456 1454 1452 1450 1448 1446 1443 1440 1437 1434 1431 1428 1424 1421 1418 1415 1412 1410 1407 1404 1400 1395
1433 1434 1436 1437 1438 1441 1443 1445 1446 1448 1450 1452 1453 1454 1456 1457 1458 1459 1460 1462 1463 1464 1465 1466 1468 1468 1468 1468 1468 1469 1469 1469 1468 1468 1468 1468 1468 1468 1467 1467 1467 1467 1466 1466 1466 1466 1466 1466 1466 1466 1465 1464 1464 1463 1463 1463 1462 1462 1460 1459 1458 1457 1455 1454 1452 1450 1448 1446 1444 1441 1438 1436 1433 1430 1427 1423 1420 1417 1414 1411 1408 1406 1403 1400 1396
1433 1434 1435 1437 1438 1440 1442 1444 1445 1446 1448 1450 1451 1452 1454 1455 1456 1457 1459 1460 1461 1463 1464 1465 1466 1466 1466 1466 1467 1467 1467 1467 1466 1466 1466 1466 1466 1466 1466 1466 1465 1465 1465 1465 1465 1465 1465 1465 1464 1464 1463 1462 1462 1461 1461 1461 1461 1460 1459 1458 1456 1455 1454 1452 1450 1448 1446 1444 1442 1440 1437 1435 1432 1429 1426 1423 1420 1417 1413 1410 1408 1405 1402 1400 1396
1434 1435 1436 1437 1438 1439 1441 1442 1443 1445 1446 1448 1450 1451 1452 1454 1455 1456 1458 1459 1460 1462 1463 1463 1464 1464 1464 1465 1465 1465 1465 1465 1465 1464 1464 1464 1464 1464 1464 1464 1464 1464 1464 1464 1464 1464 1463 1463 1463 1462 1461 1461 1460 1460 1459 1459 1459 1458 1457 1456 1455 1453 1452 1450 1448 1447 1445 1443 1441 1439 1436 1434 1431 1428 1425 1422 1419 1416 1413 1410 1408 1405 1402 1400 1397
1434 1435 1436 1436 1437 1438 1439 1441 1442 1444 1446 1447 1448 1450 1451 1453 1454 1456 1457 1458 1459 1460 1461 1461 1462 1462 1462 1463 1463 1463 1463 1463 1463 1463 1463 1463 1463 1462 1462 1462 1462 1462 1462 1462 1462 1462 1462 1461 1461 1460 1460 1459 1459 1458 1458 1457 1457 1456 1456 1454 1453 1452 1450 1449 1447 1446 1444 1442 1440 1438 1436 1434 1431 1428 1425 1422 1419 1416 1413 1411 1408 1405 1403 1400 1397
1433 1434 1434 1435 1435 1436 1437 1439 1441 1442 1444 1446 1448 1449 1451 1452 1454 1455 1456 1457 1458 1459 1459 1460 1460 1460 1461 1461 1462 1462 1462 1461 1461 1461 1461 1461 1461 1461 1461 1460 1460 1460 1460 1460 1460 1460 1460 1459 1459 1459 1458 1458 1458 1457 1457 1456 1455 1455 1454 1453 1452 1450 1449 1448 1446 1444 1443 1441 1440 1438 1435 1433 1431 1428 1425 1422 1420 1417 1414 1411 1409 1406 1403 1401 1398
1432 1433 1433 1434 1434 1435 1436 1438 1439 1440 1443 1445 1447 1449 1450 1452 1453 1454 1455 1456 1457 1457 1458 1458 1458 1459 1459 1460 1460 1460 1460 1460 1460 1460 1460 1460 1460 1460 1459 1459 1459 1459 1458 1458 1458 1458 1458 1458 1457 1457 1457 1457 1456 1456 1455 1454 1454 1453 1452 1451 1450 1449 1448 1446 1445 1444 1442 1441 1439 1437 1435 1433 1430 1428 1425 1422 1420 1417 1414 1412 1409 1406 1404 1401 1399
1431 1432 1432 1433 1434 1435 1436 1437 1438 1440 1442 1444 1446 1447 1448 1450 1451 1453 1453 1454 1455 1456 1456 1457 1457 1457 1458 1458 1458 1458 1458 1458 1459 1459 1459 1459 1459 1458 1458 1458 1457 1457 1456 1456 1456 1456 1456 1456 1456 1456 1456 1455 1455 1454 1453 1453 1452 1451 1450 1450 1449 1447 1446 1445 1444 1443 1442 1440 1438 1436 1435 1432 1430 1428 1425 1423 1420 1417 1415 1412 1409 1407 1404 1402 1399
1429 1430 1432 1433 1434 1435 1436 1437 1438 1439 1441 1443 1444 1445 1446 1447 1449 1450 1451 1452 1453 1454 1455 1455 1455 1456 1456 1456 1456 1456 1457 1457 1458 1458 1458 1458 1458 1457 1457 1456 1456 1455 1454 1454 1454 1454 1454 1455 1455 1454 1454 1454 1453 1453 1452 1451 1450 1450 1449 1448 1447 1446 1446 1445 1444 1443 1441 1439 1438 1436 1434 1432 1430 1428 1426 1423 1420 1418 1415 1413 1410 1408 1405 1403 1400
1428 1430 1431 1432 1433 1434 1435 1436 1438 1439 1440 1441 1443 1444 1445 1446 1447 1447 1448 1450 1451 1452 1453 1454 1454 1454 1454 1455 1455 1455 1455 1456 1457 1457 1457 1457 1457 1456 1456 1455 1454 1454 1453 1452 1452 1452 1453 1453 1453 1453 1453 1452 1452 1451 1450 1449 1449 1448 1448 1447 1446 1445 1445 1444 1443 1442 1440 1439 1437 1436 1434 1432 1430 1428 1426 1424 1421 1418 1416 1413 1411 1409 1406 1404 1402
1427 1429 1430 1431 1432 1433 1434 1436 1437 1438 1439 1441 1442 1444 1445 1445 1445 1446 1447 1448 1449 1450 1451 1452 1453 1453 1453 1453 1454 1454 1455 1455 1456 1456 1456 1456 1455 1455 1454 1454 1453 1452 1451 1451 1451 1451 1452 1452 1452 1452 1451 1451 1450 1450 1449 1448 1447 1447 1446 1446 1445 1445 1444 1443 1442 1441 1440 1439 1437 1435 1434 1432 1430 1428 1426 1424 1421 1419 1417 1414 1412 1410 1408 1405 1403
1427 1429 1430 1431 1432 1433 1434 1435 1436 1437 1439 1440 1442 1443 1444 1444 1444 1445 1445 1446 1448 1449 1450 1450 1451 1451 1452 1452 1453 1453 1454 1454 1455 1455 1455 1454 1454 1453 1453 1452 1451 1450 1450 1450 1450 1450 1450 1450 1450 1450 1450 1449 1449 1448 1447 1447 1446 1446 1445 1445 1444 1444 1443 1442 1442 1441 1439 1438 1437 1435 1434 1432 1430 1428 1426 1424 1422 1420 1417 1415 1413 1410 1408 1406 1404
1427 1429 1430 1431 1432 1432 1433 1434 1435 1436 1438 1439 1440 1442 1442 1442 1442 1443 1444 1445 1446 1447 1447 1449 1449 1450 1451 1451 1452 1452 1453 1453 1453 1453 1453 1453 1452 1452 1451 1450 1449 1448 1448 1449 1449 1449 1449 1449 1449 1449 1448 1448 1447 1446 1446 1445 1445 1444 1444 1444 1443 1443 1443 1442 1441 1440 1439 1438 1437 1435 1434 1432 1430 1429 1427 1424 1422 1420 1418 1416 1413 1411 1409 1407 1405
1427 1429 1431 1431 1432 1432 1433 1433 1434 1435 1436 1438 1439 1440 1440 1440 1441 1442 1442 1443 1444 1445 1446 1447 1448 1449 1449 1450 1450 1451 1451 1451 1452 1452 1452 1451 1451 1450 1449 1448 1447 1447 1447 1448 1448 1448 1448 1448 1448 1447 1447 1446 1445 1444 1444 1444 1443 1443 1443 1443 1442 1442 1442 1441 1440 1439 1439 1438 1436 1435 1433 1432 1430 1429 1427 1424 1422 1420 1418 1416 1414 1412 1410 1408 1406
1427 1428 1429 1429 1430 1430 1431 1432 1433 1434 1435 1436 1437 1438 1438 1439 1440 1440 1441 1442 1443 1443 1445 1445 1446 1447 1448 1448 1449 1449 1450 1450 1450 1450 1450 1450 1449 1448 1447 1447 1446 1446 1446 1447 1447 1447 1447 1447 1446 1446 1445 1444 1444 1443 1443 1442 1442 1442 1442 1442 1442 1441 1441 1440 1440 1439 1438 1437 1436 1434 1433 1432 1430 1428 1427 1425 1423 1421 1419 1417 1415 1413 1411 1409 1407
1424 1425 1425 1426 1426 1427 1429 1430 1431 1432 1434 1435 1436 1436 1437 1438 1438 1439 1440 1440 1441 1442 1443 1444 1445 1445 1446 1447 1447 1448 1448 1448 1449 1449 1448 1448 1447 1447 1446 1445 1445 1445 1445 1446 1446 1446 1446 1446 1445 1445 1444 1443 1443 1442 1442 1441 1441 1441 1441 1441 1441 1440 1440 1439 1439 1438 1437 1436 1435 1434 1433 1431 1430 1429 1427 1425 1423 1422 1420 1418 1416 1414 1412 1410 1409
1422 1422 1423 1423 1424 1426 1428 1429 1430 1431 1432 1433 1434 1435 1435 1436 1437 1438 1439 1439 1440 1441 1441 1442 1443 1444 1444 1445 1445 1446 1446 1447 1447 1447 1447 1446 1446 1445 1445 1444 1443 1444 1444 1444 1445 1445 1445 1445 1444 1444 1443 1442 1442 1441 1441 1441 1440 1440 1440 1440 1439 1439 1438 1438 1437 1437 1436 1435 1434 1433 1432 1431 1430 1428 1427 1426 1424 1423 1421 1419 1417 1415 1413 1412 1410
1420 1421 1422 1422 1424 1425 1427 1428 1429 1430 1431 1432 1433 1433 1434 1435 1436 1437 1437 1438 1438 1439 1439 1440 1441 1441 1442 1443 1443 1444 1444 1445 1445 1445 1445 1444 1444 1444 1443 1443 1442 1443 1443 1443 1444 1444 1443 1443 1443 1443 1442 1441 1441 1441 1440 1440 1440 1439 1439 1439 1438 1438 1437 1437 1436 1435 1435 1434 1434 1433 1432 1431 1430 1428 1427 1426 1425 1423 1421 1420 1418 1416 1415 1413 1412
1419 1420 1421 1422 1423 1425 1426 1427 1428 1429 1430 1431 1432 1432 1433 1434 1435 1436 1436 1437 1437 1437 1438 1438 1439 1440 1440 1441 1441 1441 1442 1442 1442 1442 1442 1443 1443 1443 1442 1442 1441 1441 1442 1442 1442 1442 1442 1442 1442 1441 1441 1440 1440 1440 1440 1439 1439 1439 1438 1438 1437 1436 1436 1435 1434 1434 1434 1433 1433 1432 1432 1431 1429 1428 1427 1426 1425 1424 1422 1421 1419 1417 1416 1415 1413
1419 1419 1420 1422 1423 1424 1425 1426 1428 1429 1430 1431 1431 1432 1432 1433 1434 1434 1435 1435 1435 1436 1436 1437 1437 1438 1438 1438 1439 1439 1439 1440 1440 1440 1440 1441 1441 1441 1441 1440 1440 1440 1440 1441 1441 1441 1441 1441 1440 1440 1440 1439 1439 1439 1439 1438 1438 1438 1437 1436 1436 1435 1434 1434 1433 1433 1433 1432 1432 1432 1431 1430 1429 1428 1428 1427 1426 1425 1423 1422 1420 1419 1417 1416 1415
1418 1419 1420 1422 1423 1424 1425 1426 1427 1428 1429 1430 1431 1431 1432 1432 1432 1433 1433 1433 1433 1434 1434 1434 1435 1435 1436 1436 1436 1437 1437 1437 1437 1438 1438 1438 1439 1439 1439 1439 1439 1439 1439 1439 1439 1439 1439 1439 1439 1439 1438 1438 1438 1438 1438 1437 1437 1436 1436 1435 1435 1434 1433 1432 1432 1432 1432 1431 1431 1431 1430 1430 1429 1428 1428 1427 1426 1425 1424 1423 1421 1420 1419 1417 1416